CW4086 Weather Reports


Display with metric or nautical units.
time (UTC)temp
F
wind
direction
speed
MPH
gust
MPH
rain 1hr
in
rain 24hr
in
rain mn
in
humidity
%
barometer
mb
20210803132603 73 95 1.0 2.0 0.00 0.00 0.00 20 1014.9
20210803132104 73 95 1.0 3.0 0.00 0.00 0.00 19 1014.9
20210803131603 73 95 1.0 3.0 0.00 0.00 0.00 18 1014.8
20210803131104 73 95 1.0 3.0 0.00 0.00 0.00 19 1014.9
20210803130604 74 95 1.0 2.0 0.00 0.00 0.00 19 1014.8
20210803130110 75 95 1.0 2.0 0.00 0.00 0.00 18 1014.7
20210803125604 75 95 0.0 2.0 0.00 0.00 0.00 17 1014.6
20210803125103 75 95 0.0 3.0 0.00 0.00 0.00 16 1014.6
20210803124604 75 95 2.0 3.0 0.00 0.00 0.00 17 1014.5
20210803124104 75 95 0.0 3.0 0.00 0.00 0.00 17 1014.5
20210803123603 74 95 2.0 3.0 0.00 0.00 0.00 18 1014.5
20210803123104 74 95 1.0 2.0 0.00 0.00 0.00 20 1014.4
20210803122604 75 95 1.0 1.0 0.00 0.00 0.00 18 1014.3
20210803122104 76 95 1.0 2.0 0.00 0.00 0.00 20 1014.2
20210803121604 76 95 1.0 2.0 0.00 0.00 0.00 19 1014.2
20210803121104 76 95 0.0 2.0 0.00 0.00 0.00 18 1014.2
20210803120603 76 95 1.0 2.0 0.00 0.00 0.00 18 1014.1
20210803120105 76 95 1.0 2.0 0.00 0.00 0.00 19 1014.0
20210803115604 75 95 1.0 2.0 0.00 0.00 0.00 19 1014.0
20210803115104 75 95 1.0 2.0 0.00 0.00 0.00 20 1013.9
20210803114603 75 95 1.0 2.0 0.00 0.00 0.00 21 1013.9
20210803114104 75 95 1.0 2.0 0.00 0.00 0.00 22 1013.9
20210803113603 74 95 1.0 2.0 0.00 0.00 0.00 22 1013.9
20210803113103 74 95 1.0 2.0 0.00 0.00 0.00 21 1013.9
20210803112603 74 95 1.0 2.0 0.00 0.00 0.00 20 1013.9
20210803112104 74 95 1.0 2.0 0.00 0.00 0.00 19 1013.9
20210803111603 74 95 1.0 2.0 0.00 0.00 0.00 21 1013.9
20210803111103 74 95 1.0 2.0 0.00 0.00 0.00 21 1013.9
20210803110604 74 95 1.0 3.0 0.00 0.00 0.00 20 1013.9
20210803110104 75 95 1.0 3.0 0.00 0.00 0.00 23 1013.9
20210803105604 74 95 2.0 3.0 0.00 0.00 0.00 21 1013.9
20210803105105 74 95 1.0 2.0 0.00 0.00 0.00 23 1013.9
20210803104603 73 95 1.0 2.0 0.00 0.00 0.00 22 1013.9
20210803104105 74 95 1.0 3.0 0.00 0.00 0.00 20 1013.9
20210803103603 74 95 1.0 3.0 0.00 0.00 0.00 20 1013.9
20210803103104 74 95 1.0 2.0 0.00 0.00 0.00 22 1013.9
20210803102603 74 95 1.0 2.0 0.00 0.00 0.00 21 1013.9
20210803102104 74 95 0.0 2.0 0.00 0.00 0.00 24 1013.9
20210803101604 74 95 1.0 2.0 0.00 0.00 0.00 22 1013.9
20210803101103 74 95 1.0 3.0 0.00 0.00 0.00 22 1013.9
20210803100603 74 95 2.0 3.0 0.00 0.00 0.00 20 1013.9
20210803100104 74 95 1.0 2.0 0.00 0.00 0.00 20 1013.9
20210803095604 74 95 1.0 2.0 0.00 0.00 0.00 21 1013.9
20210803095104 74 95 1.0 2.0 0.00 0.00 0.00 20 1013.9
20210803094604 74 95 1.0 2.0 0.00 0.00 0.00 20 1013.9
20210803094105 74 95 1.0 2.0 0.00 0.00 0.00 21 1013.9
20210803093603 74 95 1.0 2.0 0.00 0.00 0.00 20 1014.0
20210803093103 74 95 1.0 2.0 0.00 0.00 0.00 21 1014.0
20210803092603 74 95 1.0 2.0 0.00 0.00 0.00 20 1014.0
20210803092105 74 95 1.0 3.0 0.00 0.00 0.00 22 1014.2
20210803091603 75 95 1.0 3.0 0.00 0.00 0.00 20 1014.4
20210803091103 74 95 1.0 2.0 0.00 0.00 0.00 18 1014.4
20210803090604 74 95 1.0 2.0 0.00 0.00 0.00 19 1014.4
20210803090104 74 95 1.0 2.0 0.00 0.00 0.00 18 1014.5
20210803085603 75 95 1.0 2.0 0.00 0.00 0.00 18 1014.5
20210803085104 75 95 1.0 2.0 0.00 0.00 0.00 19 1014.5
20210803084603 75 95 1.0 2.0 0.00 0.00 0.00 19 1014.5
20210803084104 75 95 1.0 2.0 0.00 0.00 0.00 18 1014.5
20210803083604 75 95 1.0 2.0 0.00 0.00 0.00 19 1014.5
20210803083103 75 95 1.0 1.0 0.00 0.00 0.00 19 1014.5
20210803082603 75 95 0.0 2.0 0.00 0.00 0.00 20 1014.5
20210803082103 75 95 1.0 2.0 0.00 0.00 0.00 19 1014.6
20210803081604 75 95 1.0 2.0 0.00 0.00 0.00 19 1014.6
20210803081103 76 95 1.0 2.0 0.00 0.00 0.00 18 1014.7
20210803080604 76 95 0.0 2.0 0.00 0.00 0.00 19 1014.7
20210803080104 76 95 0.0 2.0 0.00 0.00 0.00 18 1014.8
20210803075603 76 95 1.0 2.0 0.00 0.00 0.00 18 1014.8
20210803075104 76 95 1.0 2.0 0.00 0.00 0.00 17 1014.8
20210803074604 76 95 1.0 2.0 0.00 0.00 0.00 17 1014.8
20210803074103 76 95 1.0 2.0 0.00 0.00 0.00 18 1014.9
20210803073603 77 95 1.0 3.0 0.00 0.00 0.00 18 1014.9
20210803073103 77 95 1.0 3.0 0.00 0.00 0.00 18 1015.0
20210803072604 76 95 1.0 3.0 0.00 0.00 0.00 17 1015.0
20210803072104 76 98 1.0 3.0 0.00 0.00 0.00 18 1015.0
20210803071603 76 105 1.0 3.0 0.00 0.00 0.00 18 1015.0
20210803071104 76 105 2.0 3.0 0.00 0.00 0.00 18 1015.0
20210803070604 76 105 1.0 3.0 0.00 0.00 0.00 18 1015.1
20210803070103 76 105 1.0 3.0 0.00 0.00 0.00 18 1015.1
20210803065604 76 107 1.0 3.0 0.00 0.00 0.00 18 1015.1
20210803065104 77 112 1.0 3.0 0.00 0.00 0.00 18 1015.1
20210803064603 77 113 1.0 3.0 0.00 0.00 0.00 18 1015.2
20210803064104 76 138 1.0 3.0 0.00 0.00 0.00 18 1015.2
20210803063604 76 138 1.0 2.0 0.00 0.00 0.00 19 1015.2
20210803063103 76 138 1.0 2.0 0.00 0.00 0.00 21 1015.2
20210803062604 76 159 1.0 2.0 0.00 0.00 0.00 20 1015.3
20210803062104 76 158 1.0 2.0 0.00 0.00 0.00 20 1015.4
20210803061603 76 158 1.0 2.0 0.00 0.00 0.00 20 1015.5
20210803061104 76 158 1.0 3.0 0.00 0.00 0.00 19 1015.5
20210803060603 77 159 1.0 3.0 0.00 0.00 0.00 19 1015.5
20210803060104 77 178 2.0 3.0 0.00 0.00 0.00 19 1015.5
20210803055604 77 184 2.0 3.0 0.00 0.00 0.00 20 1015.5
20210803055104 77 224 1.0 2.0 0.00 0.00 0.00 20 1015.6
20210803054603 77 224 0.0 2.0 0.00 0.00 0.00 23 1015.5
20210803054104 77 224 1.0 2.0 0.00 0.00 0.00 22 1015.5
20210803053604 78 224 1.0 2.0 0.00 0.00 0.00 23 1015.6
20210803053104 78 224 1.0 2.0 0.00 0.00 0.00 20 1015.6
20210803052604 79 224 1.0 2.0 0.00 0.00 0.00 22 1015.6
20210803052103 80 224 0.0 2.0 0.00 0.00 0.00 18 1015.6
20210803051603 80 224 0.0 1.0 0.00 0.00 0.00 21 1015.6
20210803051104 81 224 0.0 1.0 0.00 0.00 0.00 20 1015.6
20210803050604 81 224 0.0 1.0 0.00 0.00 0.00 16 1015.6
20210803050103 81 224 0.0 1.0 0.00 0.00 0.00 16 1015.6
20210803045604 82 224 0.0 1.0 0.00 0.00 0.00 14 1015.6
20210803045103 82 224 0.0 1.0 0.00 0.00 0.00 17 1015.6
20210803044604 82 224 0.0 1.0 0.00 0.00 0.00 16 1015.6
20210803044103 83 224 0.0 1.0 0.00 0.00 0.00 15 1015.6
20210803043604 83 224 0.0 2.0 0.00 0.00 0.00 15 1015.6
20210803043104 83 224 0.0 2.0 0.00 0.00 0.00 14 1015.6
20210803042603 83 224 1.0 2.0 0.00 0.00 0.00 14 1015.6
20210803042104 83 224 1.0 1.0 0.00 0.00 0.00 13 1015.5
20210803041603 83 224 0.0 1.0 0.00 0.00 0.00 13 1015.4
20210803041104 84 224 0.0 1.0 0.00 0.00 0.00 14 1015.4
20210803040603 84 224 0.0 1.0 0.00 0.00 0.00 13 1015.3
20210803040103 84 224 0.0 1.0 0.00 0.00 0.00 14 1015.3
20210803035604 84 224 0.0 1.0 0.00 0.00 0.00 14 1015.2
20210803035103 85 224 0.0 1.0 0.00 0.00 0.00 15 1015.2
20210803034603 85 224 0.0 1.0 0.00 0.00 0.00 15 1015.1
20210803034104 85 224 0.0 1.0 0.00 0.00 0.00 15 1015.1
20210803033604 86 224 0.0 1.0 0.00 0.00 0.00 15 1015.0
20210803033103 87 224 0.0 2.0 0.00 0.00 0.00 16 1015.0
20210803032605 87 224 1.0 2.0 0.00 0.00 0.00 15 1015.0
20210803032105 87 224 1.0 3.0 0.00 0.00 0.00 15 1014.9
20210803031604 87 224 2.0 3.0 0.00 0.00 0.00 14 1014.8
20210803031104 87 225 1.0 3.0 0.00 0.00 0.00 13 1014.7
20210803030603 88 225 2.0 5.0 0.00 0.00 0.00 12 1014.7
20210803030104 88 225 2.0 5.0 0.00 0.00 0.00 12 1014.6
20210803025604 89 268 2.0 6.0 0.00 0.00 0.00 14 1014.6
20210803025104 90 273 2.0 6.0 0.00 0.00 0.00 13 1014.5
20210803024603 91 264 2.0 5.0 0.00 0.00 0.00 13 1014.5
20210803024103 91 244 2.0 6.0 0.00 0.00 0.00 12 1014.5
20210803023604 92 268 2.0 6.0 0.00 0.00 0.00 12 1014.5
20210803023104 92 271 3.0 7.0 0.00 0.00 0.00 11 1014.5
20210803022603 93 278 3.0 7.0 0.00 0.00 0.00 12 1014.5
20210803022103 94 258 4.0 7.0 0.00 0.00 0.00 11 1014.4
20210803021604 94 267 3.0 6.0 0.00 0.00 0.00 11 1014.4
20210803021103 95 269 3.0 7.0 0.00 0.00 0.00 10 1014.4
20210803020603 95 276 3.0 12.0 0.00 0.00 0.00 10 1014.4
20210803020104 96 260 3.0 12.0 0.00 0.00 0.00 10 1014.3
20210803015604 96 266 6.0 12.0 0.00 0.00 0.00 9 1014.2
20210803015103 97 241 3.0 9.0 0.00 0.00 0.00 10 1014.0
20210803014603 97 250 5.0 9.0 0.00 0.00 0.00 9 1014.0
20210803014103 97 265 6.0 10.0 0.00 0.00 0.00 8 1013.9
20210803013603 97 262 6.0 12.0 0.00 0.00 0.00 9 1013.9
20210803013107 98 275 5.0 12.0 0.00 0.00 0.00 10 1013.9
20210803012604 98 263 6.0 12.0 0.00 0.00 0.00 9 1013.9
20210803012105 98 262 6.0 13.0 0.00 0.00 0.00 9 1013.8
20210803011603 99 283 5.0 13.0 0.00 0.00 0.00 9 1013.7
20210803011104 99 253 6.0 13.0 0.00 0.00 0.00 9 1013.6
20210803010603 99 273 6.0 10.0 0.00 0.00 0.00 9 1013.6
20210803010103 100 266 5.0 10.0 0.00 0.00 0.00 9 1013.5
20210803005603 100 278 4.0 12.0 0.00 0.00 0.00 9 1013.5
20210803005103 100 256 5.0 12.0 0.00 0.00 0.00 10 1013.6
20210803004603 101 267 5.0 12.0 0.00 0.00 0.00 10 1013.4
20210803004104 101 250 7.0 12.0 0.00 0.00 0.00 10 1013.4
20210803003604 102 248 5.0 10.0 0.00 0.00 0.00 10 1013.4
20210803003103 102 253 6.0 13.0 0.00 0.00 0.00 10 1013.4
20210803002604 102 231 5.0 13.0 0.00 0.00 0.00 10 1013.4
20210803002104 103 260 6.0 13.0 0.00 0.00 0.00 10 1013.2
20210803001603 103 256 4.0 12.0 0.00 0.00 0.00 11 1013.3
20210803001103 102 259 5.0 12.0 0.00 0.00 0.00 11 1013.3
20210803000603 103 248 5.0 14.0 0.00 0.00 0.00 10 1013.3
20210803000103 103 269 8.0 14.0 0.00 0.00 0.00 10 1013.4
20210802235604 103 259 5.0 10.0 0.00 0.00 0.00 10 1013.4
20210802235104 103 248 4.0 9.0 0.00 0.00 0.00 10 1013.3
20210802234603 103 250 5.0 10.0 0.00 0.00 0.00 10 1013.3
20210802234104 103 292 6.0 12.0 0.00 0.00 0.00 10 1013.3
20210802233604 104 286 4.0 12.0 0.00 0.00 0.00 10 1013.4
20210802233103 104 265 4.0 9.0 0.00 0.00 0.00 10 1013.4
20210802232603 104 278 4.0 12.0 0.00 0.00 0.00 10 1013.4
20210802232104 104 254 2.0 12.0 0.00 0.00 0.00 10 1013.5
20210802231603 104 260 4.0 10.0 0.00 0.00 0.00 10 1013.6
20210802231103 104 305 4.0 10.0 0.00 0.00 0.00 10 1013.5
20210802230603 104 268 5.0 10.0 0.00 0.00 0.00 10 1013.6
20210802230104 104 266 2.0 10.0 0.00 0.00 0.00 9 1013.5
20210802225603 104 242 3.0 13.0 0.00 0.00 0.00 10 1013.6
20210802225104 104 270 5.0 13.0 0.00 0.00 0.00 9 1013.8
20210802224603 105 268 5.0 8.0 0.00 0.00 0.00 9 1013.8
20210802224104 104 239 3.0 13.0 0.00 0.00 0.00 9 1013.8
20210802223603 104 281 3.0 13.0 0.00 0.00 0.00 9 1013.9
20210802223104 104 244 4.0 13.0 0.00 0.00 0.00 9 1013.9
20210802222604 104 259 5.0 8.0 0.00 0.00 0.00 9 1014.0
20210802222103 104 277 3.0 10.0 0.00 0.00 0.00 9 1014.0
20210802221603 103 277 3.0 10.0 0.00 0.00 0.00 9 1014.1
20210802221105 103 305 3.0 8.0 0.00 0.00 0.00 9 1014.2
20210802220603 103 289 3.0 10.0 0.00 0.00 0.00 8 1014.3
20210802220104 104 307 4.0 10.0 0.00 0.00 0.00 8 1014.4
20210802215603 104 264 3.0 10.0 0.00 0.00 0.00 10 1014.4
20210802215104 104 264 5.0 10.0 0.00 0.00 0.00 10 1014.4
20210802214604 104 260 4.0 10.0 0.00 0.00 0.00 9 1014.5
20210802214104 103 326 2.0 8.0 0.00 0.00 0.00 10 1014.5
20210802213603 103 247 3.0 8.0 0.00 0.00 0.00 9 1014.5
20210802213104 103 259 4.0 8.0 0.00 0.00 0.00 9 1014.6
20210802212604 103 247 5.0 8.0 0.00 0.00 0.00 9 1014.6
20210802212106 102 266 3.0 9.0 0.00 0.00 0.00 10 1014.8
20210802211603 102 272 4.0 9.0 0.00 0.00 0.00 9 1014.8
20210802211103 102 279 1.0 10.0 0.00 0.00 0.00 9 1014.9
20210802210603 102 261 3.0 10.0 0.00 0.00 0.00 10 1015.0
20210802210103 102 291 3.0 10.0 0.00 0.00 0.00 10 1015.0
20210802205604 102 265 4.0 8.0 0.00 0.00 0.00 9 1015.0
20210802205103 102 237 1.0 8.0 0.00 0.00 0.00 10 1015.0
20210802204604 102 260 3.0 8.0 0.00 0.00 0.00 10 1015.1
20210802204104 102 279 3.0 8.0 0.00 0.00 0.00 10 1015.2
20210802203603 102 259 3.0 7.0 0.00 0.00 0.00 10 1015.3
20210802203103 102 256 2.0 7.0 0.00 0.00 0.00 10 1015.4
20210802202604 101 253 2.0 7.0 0.00 0.00 0.00 11 1015.4
20210802202104 101 258 4.0 12.0 0.00 0.00 0.00 10 1015.5
20210802201604 101 259 3.0 12.0 0.00 0.00 0.00 10 1015.5
20210802201104 101 272 3.0 12.0 0.00 0.00 0.00 11 1015.5
20210802200604 100 251 4.0 10.0 0.00 0.00 0.00 11 1015.5
20210802200104 100 238 3.0 8.0 0.00 0.00 0.00 10 1015.6
20210802195604 100 278 3.0 9.0 0.00 0.00 0.00 10 1015.5
20210802195103 100 250 3.0 9.0 0.00 0.00 0.00 11 1015.6
20210802194604 99 268 3.0 9.0 0.00 0.00 0.00 10 1015.6
20210802194104 99 262 3.0 8.0 0.00 0.00 0.00 12 1015.7
20210802193603 99 268 3.0 7.0 0.00 0.00 0.00 11 1015.8
20210802193104 98 249 3.0 9.0 0.00 0.00 0.00 11 1015.9
20210802192603 98 212 2.0 9.0 0.00 0.00 0.00 14 1016.0
20210802192104 98 243 2.0 9.0 0.00 0.00 0.00 12 1016.1
20210802191603 98 279 2.0 7.0 0.00 0.00 0.00 11 1016.1
20210802191104 98 254 2.0 8.0 0.00 0.00 0.00 11 1016.1
20210802190603 98 247 2.0 8.0 0.00 0.00 0.00 13 1016.2
20210802190104 98 251 4.0 8.0 0.00 0.00 0.00 11 1016.3
20210802185604 97 259 2.0 7.0 0.00 0.00 0.00 13 1016.3
20210802185104 97 227 3.0 7.0 0.00 0.00 0.00 12 1016.3
20210802184604 97 248 2.0 7.0 0.00 0.00 0.00 13 1016.3
20210802184104 96 238 1.0 6.0 0.00 0.00 0.00 13 1016.3
20210802183604 96 255 1.0 7.0 0.00 0.00 0.00 13 1016.4
20210802183103 95 246 3.0 7.0 0.00 0.00 0.00 13 1016.5
20210802182604 95 266 1.0 5.0 0.00 0.00 0.00 13 1016.6
20210802182104 95 269 2.0 5.0 0.00 0.00 0.00 12 1016.7
20210802181603 95 224 1.0 3.0 0.00 0.00 0.00 15 1016.8
20210802181103 95 244 1.0 5.0 0.00 0.00 0.00 14 1016.8
20210802180603 94 260 2.0 5.0 0.00 0.00 0.00 13 1016.8
20210802180104 94 262 3.0 5.0 0.00 0.00 0.00 14 1016.8
20210802175604 93 286 1.0 3.0 0.00 0.00 0.00 13 1016.8
20210802175104 93 265 1.0 3.0 0.00 0.00 0.00 16 1016.9
20210802174603 92 281 1.0 5.0 0.00 0.00 0.00 15 1016.9
20210802174105 92 264 1.0 5.0 0.00 0.00 0.00 14 1016.9
20210802173604 92 241 1.0 3.0 0.00 0.00 0.00 16 1016.9
20210802173104 91 260 0.0 0.0 0.00 0.00 0.00 16 1017.0
20210802172604 91 253 0.0 0.0 0.00 0.00 0.00 16 1016.9
20210802172104 91 248 0.0 0.0 0.00 0.00 0.00 20 1016.9
20210802171604 90 264 0.0 0.0 0.00 0.00 0.00 17 1017.0
20210802171104 90 261 0.0 0.0 0.00 0.00 0.00 17 1016.9
20210802170604 90 261 0.0 0.0 0.00 0.00 0.00 17 1016.9
20210802170105 89 224 0.0 0.0 0.00 0.00 0.00 19 1016.9
20210802165604 88 222 0.0 0.0 0.00 0.00 0.00 18 1017.0
20210802165104 88 221 0.0 3.0 0.00 0.00 0.00 18 1017.1
20210802164604 88 219 0.0 3.0 0.00 0.00 0.00 17 1017.2
20210802164104 87 214 0.0 1.0 0.00 0.00 0.00 19 1017.2
20210802163604 87 214 0.0 0.0 0.00 0.00 0.00 18 1017.2
20210802163103 86 211 0.0 0.0 0.00 0.00 0.00 20 1017.3
20210802162603 86 206 0.0 0.0 0.00 0.00 0.00 19 1017.3
20210802162104 85 202 0.0 0.0 0.00 0.00 0.00 20 1017.3
20210802161604 85 201 0.0 0.0 0.00 0.00 0.00 22 1017.3
20210802161103 85 200 0.0 0.0 0.00 0.00 0.00 23 1017.3
20210802160604 84 200 0.0 0.0 0.00 0.00 0.00 23 1017.3
20210802160103 84 199 0.0 0.0 0.00 0.00 0.00 24 1017.3
20210802155604 84 199 0.0 0.0 0.00 0.00 0.00 22 1017.4
20210802155103 83 199 0.0 0.0 0.00 0.00 0.00 23 1017.4
20210802154603 83 198 0.0 3.0 0.00 0.00 0.00 24 1017.4
20210802154104 82 198 0.0 3.0 0.00 0.00 0.00 25 1017.4
20210802153604 82 198 0.0 1.0 0.00 0.00 0.00 27 1017.4
20210802153103 80 198 0.0 1.0 0.00 0.00 0.00 27 1017.5
20210802152604 79 198 0.0 1.0 0.00 0.00 0.00 26 1017.5
20210802152103 78 117 0.0 1.0 0.00 0.00 0.00 28 1017.5
20210802151603 77 126 0.0 1.0 0.00 0.00 0.00 25 1017.5
20210802151103 76 67 0.0 1.0 0.00 0.00 0.00 26 1017.5
20210802150604 76 67 0.0 1.0 0.00 0.00 0.00 27 1017.5
20210802150105 76 67 0.0 1.0 0.00 0.00 0.00 27 1017.5
20210802145604 75 67 0.0 1.0 0.00 0.00 0.00 25 1017.5
20210802145104 75 67 0.0 1.0 0.00 0.00 0.00 27 1017.5
20210802144603 75 67 0.0 0.0 0.00 0.00 0.00 28 1017.4
20210802144104 75 67 0.0 0.0 0.00 0.00 0.00 29 1017.3
20210802143604 75 67 0.0 0.0 0.00 0.00 0.00 28 1017.3
20210802143103 75 67 0.0 0.0 0.00 0.00 0.00 26 1017.2
20210802142603 74 67 0.0 1.0 0.00 0.00 0.00 26 1017.2
20210802142104 74 67 0.0 1.0 0.00 0.00 0.00 26 1017.3
20210802141603 74 67 0.0 0.0 0.00 0.00 0.00 25 1017.3
20210802141103 74 67 0.0 0.0 0.00 0.00 0.00 25 1017.2
20210802140603 74 67 0.0 1.0 0.00 0.00 0.00 26 1017.1
20210802140103 74 67 0.0 1.0 0.00 0.00 0.00 25 1017.0
20210802135604 74 67 0.0 0.0 0.00 0.00 0.00 25 1017.0
20210802135104 74 67 0.0 1.0 0.00 0.00 0.00 26 1017.0
20210802134604 74 67 0.0 1.0 0.00 0.00 0.00 25 1017.0
20210802134103 73 67 0.0 2.0 0.00 0.00 0.00 25 1017.0
20210802133604 73 46 0.0 2.0 0.00 0.00 0.00 26 1016.9
20210802133103 74 48 1.0 2.0 0.00 0.00 0.00 25 1016.9